{"data":{"norad_id":87998,"epoch":"2026-07-03T19:04:22.308960Z","epoch_age_seconds":6817716,"freshness":"OLD","line1":"1 87998U          26184.79470265  .00000792  00000+0  45342-3 0  9990","line2":"2 87998  98.5974 187.1507 0027132  28.6914 331.5745 14.12070758577551","mean_motion":14.12070758,"eccentricity":0.0027132,"inclination_deg":98.5974,"raan_deg":187.1507,"arg_perigee_deg":28.6914,"mean_anomaly_deg":331.5745,"bstar":0.00045342,"rev_number":57755,"period_min":101.97789252711,"perigee_km":832.67665465109,"apogee_km":871.91186684442,"semimajor_km":7230.4312607478,"source":"CELESTRAK","updated_at":"2026-08-02T09:00:40.301010Z"}}